Location: Staunton
(38.1490°N, 79.0720°W)
Time: 00:01:26
(UTC-05:00)

ISS - Pass Details

Date: 11 November 2018
Orbit: 402 x 408 km, 51.6° (Epoch: 16 November)

Event Time Altitude Azimuth Distance (km) Brightness Sun altitude
Exits shadow 05:19:26 16° 359° (N) 1,137 -1.7 -18.6°
Maximum altitude 05:20:32 19° 26° (NNE) 1,035 -1.6 -18.4°
Drops below altitude 10° 05:22:59 10° 74° (ENE) 1,459 0.0 -17.9°
Sets 05:25:28 0° 93° (E) 2,318 1.8 -17.4°
